Regional Weather Roundup
Issued by NWS

Home | Current Version | Previous Version | Graphics & Text | Print | Product List | Glossary On
Versions: 1 2 3 4 5 6 7 8 9 10 11 12 13 14 15 16 17 18 19 20 21 22 23 24 25 26 27 28 29 30 31 32 33 34 35 36 37 38 39 40 41 42 43 44 45 46 47 48 49 50
898
ASUS43 KOAX 251410
RWRNE

WEATHER ROUNDUP FOR NEBRASKA
NATIONAL WEATHER SERVICE OMAHA NE
900 AM CDT TUE JUL 25 2017

NOTES: SATELLITE DATA IS BEING USED TO AUGMENT CLOUD COVER ABOVE
       12000 FEET.
       "FAIR" INDICATES FEW OR NO CLOUDS BELOW 12,000 FEET WITH NO
       SIGNIFICANT WEATHER AND/OR OBSTRUCTIONS TO VISIBILITY.


NEZ001>004-019>022-054>056-251500-
NEBRASKA PANHANDLE

CITY           SKY/WX    TMP DP  RH WIND       PRES   REMARKS
SCOTTSBLUFF    CLOUDY    74  59  59 E7        29.96S
ALLIANCE       PTSUNNY   81  60  48 S12       29.96S
CHADRON        CLOUDY    79  55  43 NE6       29.92R
GORDON         FAIR      78  64  62 SW3       29.94R
KIMBALL        SUNNY     71  60  67 SW3       30.05S
SIDNEY         SUNNY     77  61  57 S10       30.03R
$$

NEZ057>060-069>072-079>082-251500-
SOUTHWEST NEBRASKA

CITY           SKY/WX    TMP DP  RH WIND       PRES   REMARKS
NORTH PLATTE   MOSUNNY   78  64  61 S9        29.98S
IMPERIAL       SUNNY     78  63  59 S12       29.99S
LEXINGTON      CLOUDY    79  66  63 S14       30.00S
MCCOOK         SUNNY     81  66  60 S15       29.99S
OGALLALA       MOSUNNY   77  65  65 S8        29.99S
$$

NEZ005>010-023>029-035>040-094-251500-
NORTH CENTRAL NEBRASKA

CITY           SKY/WX    TMP DP  RH WIND       PRES   REMARKS
VALENTINE      SUNNY     85  59  41 SW13      29.90S
AINSWORTH      SUNNY     82  62  50 SW18G25   29.92S
BROKEN BOW     SUNNY     80  63  55 VRB7      29.98S
O`NEILL        SUNNY     82  66  58 S16G23    29.93R
ORD            SUNNY     80  62  54 S12       29.96S
THEDFORD       SUNNY     82  64  53 S17G25    29.96S
$$

NEZ041-046>049-061>064-073>077-083>087-251500-
SOUTH CENTRAL NEBRASKA

CITY           SKY/WX    TMP DP  RH WIND       PRES   REMARKS
GRAND ISLAND   SUNNY     81  68  64 S13       30.00S
AURORA         SUNNY     78  70  74 S8        30.01S
HASTINGS       SUNNY     78  66  66 S9        30.02S
HEBRON         SUNNY     81  70  70 S8        30.03S
HOLDREGE       SUNNY     79  64  61 S10G17    30.02R
KEARNEY        SUNNY     80  67  64 S15       30.01S
YORK           SUNNY     77  72  83 S8        30.01S
$$

NEZ011>018-030>034-042>045-251500-
NORTHEAST NEBRASKA

CITY           SKY/WX    TMP DP  RH WIND       PRES   REMARKS
NORFOLK        SUNNY     81  68  64 S16       29.96S
ALBION         SUNNY     80  69  67 SW13      29.98S
BLAIR          SUNNY     76  69  77 S15G21    30.02R
COLUMBUS       SUNNY     80  70  71 S10       29.99R
FREMONT        SUNNY     77  68  75 S9        30.01S
TEKAMAH        SUNNY     78  68  71 S9        29.99F
WAYNE          SUNNY     78  76  94 S12       29.96S
$$

NEZ050>053-065>068-078-088>093-251500-
SOUTHEAST NEBRASKA

CITY           SKY/WX    TMP DP  RH WIND       PRES   REMARKS
LINCOLN        SUNNY     80  71  74 S10       30.01S
OMAHA EPPLEY   SUNNY     78  66  66 S21       30.02S
BEATRICE       SUNNY     79  71  76 S13       30.03S
FALLS CITY     SUNNY     77  68  73 S10       30.05R
NEBRASKA CITY  SUNNY     76  71  86 S14       30.04R
PLATTSMOUTH    SUNNY     76  68  76 S12       30.03R
$$

NEZ044-045-051>053-067-251500-
OMAHA AREA

CITY           SKY/WX    TMP DP  RH WIND       PRES   REMARKS
OMAHA EPPLEY   SUNNY     78  66  66 S21       30.02S
BLAIR          SUNNY     76  69  77 S15G21    30.02R
FREMONT        SUNNY     77  68  75 S9        30.01S
MILLARD        SUNNY     79  71  74 SE12      30.02S
OFFUTT AFB     SUNNY     77  68  72 SE10      30.02S
PLATTSMOUTH    SUNNY     76  68  76 S12       30.03R
WAHOO          FAIR      76  70  80 S9        30.00S
$$




USA.gov is the U.S. government's official web portal to all federal, state and local government web resources and services.